Regional Weather Roundup
Issued by NWS Cleveland, OH

Home | Current Version | Previous Version | Text Only | Print | Product List | Glossary Off
Versions: 1 2 3 4 5 6 7 8 9 10 11 12 13 14 15 16 17 18 19 20 21 22 23 24 25 26 27 28 29 30 31 32 33 34 35 36 37 38 39 40 41 42 43 44 45 46 47 48 49 50

000
ASUS41 KCLE 280102
RWRCLE
OHIO REGIONAL WEATHER ROUNDUP
NATIONAL WEATHER SERVICE CLEVELAND, OH
800 PM EST TUE JAN 27 2015

NOTE: "FAIR" INDICATES FEW OR NO CLOUDS BELOW 12,000 FEET WITH NO
SIGNIFICANT WEATHER AND/OR OBSTRUCTIONS TO VISIBILITY.

OHZ001>008-015>018-024>027-034-035-043-044-280200-
   NORTHWEST OHIO

CITY           SKY/WX    TMP DP  RH WIND       PRES   REMARKS
DEFIANCE       CLEAR     20   9  62 N5        30.22R WCI  13
FINDLAY        PTCLDY    16   9  74 W5        30.19R WCI   9
TOLEDO EXPRESS CLEAR     21  11  65 N7        30.21R WCI  12
TOLEDO EXEC    CLEAR     23  11  60 NW9       30.21R WCI  13
LIMA           PTCLDY    13   7  77 CALM      30.19R
$$

OHZ009>014-019>023-028>033-038-089-280200-
   NORTHEAST OHIO

CITY           SKY/WX    TMP DP  RH WIND       PRES   REMARKS
CLE-HOPKINS    CLOUDY    18  13  80 N9        30.19R WCI   7
CLE-LAKEFRONT  CLEAR     17  12  80 NW7       30.17S WCI   8
CUY CO. ARPT   MOCLDY    19  14  79 N8        30.15  WCI   9
LORAIN-ELYRIA  MOCLDY    16  11  80 N7        30.17R WCI   6
ASHTABULA      CLOUDY    17  12  80 NW5       30.13R WCI  10
AKRON-CANTON   MOCLDY    15   8  73 NW8       30.11R WCI   4
WOOSTER        CLEAR      4   1  88 NW5       30.13S WCI  -5
MANSFIELD      PTCLDY    13   8  81 W5        30.13R WCI   5
YOUNGSTOWN     FLURRIES  17  11  77 NW13      30.09R WCI   4
$$

OHZ042-051>053-060>062-070>072-077>081-280200-
  SOUTHWEST OHIO

CITY           SKY/WX    TMP DP  RH WIND       PRES   REMARKS
CINC-COVINGTON CLEAR     23  12  62 N13       30.20R WCI  11
CINC-LUNKEN    CLEAR     22  13  68 N7        30.24R WCI  13
HAMILTON       CLEAR     19  13  77 CALM      30.24R
DAYTON         CLEAR     14   9  80 NW3       30.20R
WRIGHT-PAT AFB CLEAR     18  11  74 W2        30.21R
DAYTON GENERAL CLEAR     18  11  74 N6        30.20R WCI  10
WILMINGTON     CLEAR     17   9  70 N7        30.19R WCI   8
$$

OHZ036-037-039>041-045>050-054>059-063>069-073>076-082>088-280200-
  CENTRAL AND SOUTHEAST OHIO

CITY           SKY/WX    TMP DP  RH WIND       PRES   REMARKS
COLUMBUS       CLEAR     18  10  71 N6        30.18R WCI  10
OSU AIRPORT    PTCLDY    14   8  77 NW7       30.18R WCI   4
BOLTON FIELD   NOT AVBL
RICKENBACK AFB CLEAR     18  11  75 NW3       30.19R
NEWARK         CLEAR     14   8  77 NW5       30.17R WCI   6
MARION         MOCLDY    10   4  76 CALM      30.17R
LANCASTER      CLEAR     14   8  77 N5        30.18R WCI   6
ZANESVILLE     CLOUDY    19  13  77 CALM      30.15R
NEW PHILLY     MOCLDY    17   8  67 NW7       30.15R WCI   8
$$


USA.gov is the U.S. government's official web portal to all federal, state and local government web resources and services.